EW0493 Weather Reports


time (UTC)temp
C
wind
direction
speed
KPH
gust
KPH
rain 1hr
cm
rain 24hr
cm
rain mn
cm
humidity
%
barometer
mb
20220124113006 -10 297 0.0 0.0 0.00 0.00 0.00 88 1013.5
20220124111605 -10 272 0.0 0.0 0.00 0.00 0.00 89 1013.2
20220124104639 -10 271 0.0 0.0 0.00 0.00 0.00 89 1012.6
20220124103014 -10 12 0.0 1.6 0.00 0.00 0.00 88 1012.4
20220124093052 -9 253 0.0 0.0 0.00 0.00 0.00 90 1011.8
20220124090002 -9 46 0.0 0.0 0.00 0.00 0.00 90 1011.2
20220124084613 -9 51 0.0 0.0 0.00 0.00 0.00 90 1011.0
20220124081507 -8 94 0.0 1.6 0.00 0.00 0.00 88 1010.8
20220124080042 -8 77 0.0 1.6 0.00 0.00 0.00 88 1010.6
20220124074547 -7 226 0.0 0.0 0.00 0.00 0.00 91 1010.5
20220124073033 -7 297 0.0 4.8 0.00 0.00 0.00 91 1010.5
20220124071624 -7 256 0.0 0.0 0.00 0.00 0.00 90 1010.3
20220124070125 -7 318 0.0 0.0 0.00 0.00 0.00 90 1010.2
20220124053028 -5 232 0.0 4.8 0.00 0.00 0.00 96 1009.3
20220124051750 -5 280 0.0 1.6 0.00 0.00 0.00 96 1009.3
20220124050009 -5 255 0.0 0.0 0.00 0.00 0.00 96 1009.3
20220124044709 -5 257 0.0 0.0 0.00 0.00 0.00 95 1009.4
20220124043205 -5 257 0.0 0.0 0.00 0.00 0.00 95 1009.4
20220124041559 -5 269 0.0 1.6 0.00 0.00 0.00 96 1009.4
20220124034649 -6 89 0.0 0.0 0.00 0.00 0.00 96 1009.2
20220124031636 -6 89 0.0 0.0 0.00 0.00 0.00 96 1009.1
20220124030102 -6 89 0.0 0.0 0.00 0.00 0.00 96 1009.0
20220124023118 -6 91 0.0 0.0 0.00 0.00 0.00 96 1008.9
20220124021615 -5 91 0.0 0.0 0.00 0.00 0.00 95 1008.9
20220124014618 -5 90 0.0 0.0 0.00 0.00 0.00 95 1009.1
20220124013057 -5 91 0.0 0.0 0.00 0.00 0.00 95 1009.1
20220124011602 -5 91 0.0 0.0 0.00 0.00 0.00 95 1009.0
20220124010254 -5 91 0.0 0.0 0.00 0.00 0.00 95 1009.1
20220124001630 -5 91 0.0 0.0 0.00 0.00 0.00 94 1009.1
20220123234635 -5 91 0.0 0.0 0.00 0.00 0.00 93 1009.1
20220123231602 -5 309 0.0 0.0 0.00 0.00 0.00 93 1009.2
20220123224601 -5 129 0.0 1.6 0.00 0.00 0.00 92 1009.0
20220123221600 -5 201 0.0 1.6 0.00 0.00 0.00 91 1009.1
20220123220052 -5 209 0.0 1.6 0.00 0.00 0.00 90 1009.1
20220123214521 -5 104 0.0 1.6 0.00 0.00 0.00 90 1009.1
20220123210108 -4 120 0.0 4.8 0.00 0.00 0.00 89 1008.9
20220123204538 -4 124 0.0 1.6 0.00 0.00 0.00 86 1009.0
20220123200041 -3 121 0.0 1.6 0.00 0.00 0.00 80 1009.4
20220123194508 -3 246 0.0 1.6 0.00 0.00 0.00 78 1009.5
20220123193159 -3 259 0.0 4.8 0.00 0.00 0.00 75 1009.5
20220123190214 -2 269 0.0 4.8 0.00 0.00 0.00 69 1009.9
20220123184542 -3 283 0.0 11.3 0.00 0.00 0.00 68 1010.1
20220123181628 -3 231 0.0 6.4 0.00 0.00 0.00 67 1010.5
20220123174506 -2 273 1.6 16.1 0.00 0.00 0.00 65 1011.0
20220123173102 -2 234 0.0 11.3 0.00 0.00 0.00 64 1011.1
20220123171523 -2 50 0.0 4.8 0.00 0.00 0.00 64 1011.4
20220123164550 -2 280 0.0 4.8 0.00 0.00 0.00 67 1012.1
20220123161530 -3 250 1.6 8.0 0.00 0.00 0.00 69 1013.0
20220123160118 -3 312 0.0 6.4 0.00 0.00 0.00 71 1013.3
20220123154510 -4 262 1.6 8.0 0.00 0.00 0.00 71 1013.5
20220123153215 -4 273 1.6 6.4 0.00 0.00 0.00 72 1013.5
20220123151531 -4 212 0.0 4.8 0.00 0.00 0.00 71 1013.8
20220123144520 -4 299 0.0 6.4 0.00 0.00 0.00 72 1014.1
20220123141502 -6 120 0.0 0.0 0.00 0.00 0.00 76 1014.5
20220123140058 -7 108 0.0 0.0 0.00 0.00 0.00 75 1014.5
20220123134544 -7 109 0.0 0.0 0.00 0.00 0.00 76 1014.6
20220123130158 -8 245 0.0 0.0 0.00 0.00 0.00 77 1014.9
20220123124516 -8 245 0.0 0.0 0.00 0.00 0.00 76 1015.2
20220123121611 -8 245 0.0 0.0 0.00 0.00 0.00 75 1015.8
20220123120005 -8 245 0.0 0.0 0.00 0.00 0.00 73 1015.7
20220123114631 -8 245 0.0 0.0 0.00 0.00 0.00 72 1015.8